Location: Unspecified
(48.7670°N, 0.0000°E)
Time: 15:33:22
(UTC+00:00)

Altair - Pass Details

Date: 18 June 2019
Orbit: 1501 x 1683 km, 47.2° (Epoch: 21 August)

Event Time Altitude Azimuth Distance (km) Brightness Sun altitude
Rises 00:39:13 0° 275° (W) 4,820 10.1 -17.3°
Reaches altitude 10° 00:42:17 10° 275° (W) 3,857 9.5 -17.3°
Maximum altitude 00:52:12 80° 190° (S) 1,690 7.6 -16.9°
Drops below altitude 10° 01:02:22 10° 106° (ESE) 3,943 9.6 -16.5°
Sets 01:05:32 0° 106° (ESE) 4,933 10.2 -16.4°
